Regional Weather Roundup
Issued by NWS

Home | Current Version | Previous Version | Text Only | Print | Product List | Glossary On
Versions: 1 2 3 4 5 6 7 8 9 10 11 12 13 14 15 16 17 18 19 20 21 22 23 24 25 26 27 28 29 30 31 32 33 34 35 36 37 38 39 40 41 42 43 44 45 46 47 48 49 50
000
ASUS44 KBMX 201810
RWRAL

ALABAMA REGIONAL WEATHER ROUNDUP
NATIONAL WEATHER SERVICE BIRMINGHAM AL
100 PM CDT MON OCT 20 2014

NOTE: "FAIR" INDICATES FEW OR NO CLOUDS BELOW 12,000 FEET
WITH NO SIGNIFICANT WEATHER AND/OR OBSTRUCTIONS TO VISIBILITY.

THE REMARK "TC" DENOTES TEMPERATURE IN DEGREES CELSIUS.

ALZ001>011-014-016>018-020-201900-
NORTH ALABAMA

CITY           SKY/WX    TMP DP  RH WIND       PRES   REMARKS
MUSCLE SHOALS  MOSUNNY   71  46  40 W6        30.07F
6HR MIN TEMP:  44; 6HR MAX TEMP:  72;

HUNTSVILLE     PTSUNNY   69  46  43 VRB3      30.06F
6HR MIN TEMP:  46; 6HR MAX TEMP:  70;

DECATUR        MOSUNNY   67  50  54 W7        30.07F
6HR MIN TEMP:  41; 6HR MAX TEMP:  68;

HALEYVILLE     FAIR      68  49  50 NW7       30.08F
6HR MIN TEMP:  39; 6HR MAX TEMP:  68;

GADSDEN        SUNNY     70  46  43 S7        30.05F
6HR MIN TEMP:  45; 6HR MAX TEMP:  70;

$$

ALZ012-013-022-023-030>036-040>044-201900-
WEST CENTRAL ALABAMA

CITY           SKY/WX    TMP DP  RH WIND       PRES   REMARKS
TUSCALOOSA     SUNNY     71  47  42 W7        30.07F
6HR MIN TEMP:  45; 6HR MAX TEMP:  73;

$$

ALZ015-024>027-033>036-040>044-201900-
CENTRAL ALABAMA

CITY           SKY/WX    TMP DP  RH WIND       PRES   REMARKS
BIRMINGHAM     MOSUNNY   71  46  40 VRB5      30.08F
6HR MIN TEMP:  47; 6HR MAX TEMP:  72;

MONTGOMERY     SUNNY     75  47  36 S3        30.05F
6HR MIN TEMP:  48; 6HR MAX TEMP:  75;

SHELBY CO ARPT SUNNY     70  49  47 VRB3      30.06F
6HR MIN TEMP:  48; 6HR MAX TEMP:  71;

MAXWELL AFB    SUNNY     73  50  43 VRB1      30.04F
6HR MIN TEMP:  50; 6HR MAX TEMP:  73;

GREENVILLE     FAIR      75  47  36 CALM      30.04F
6HR MIN TEMP:  44; 6HR MAX TEMP:  77;

$$

ALZ019-021-028-029-037-038-045>048-201900-
EAST CENTRAL ALABAMA

CITY           SKY/WX    TMP DP  RH WIND       PRES   REMARKS
ANNISTON       MOSUNNY   71  50  47 VRB6      30.05F
6HR MIN TEMP:  46; 6HR MAX TEMP:  71;

ALEXANDER CITY SUNNY     74  51  44 W5        30.06F
6HR MIN TEMP:  49; 6HR MAX TEMP:  74;

AUBURN         MOSUNNY   68  50  52 SE3       30.08F
6HR MIN TEMP:  46; 6HR MAX TEMP:  70;

$$

ALZ051>064-201900-
SOUTHWEST ALABAMA

CITY           SKY/WX    TMP DP  RH WIND       PRES   REMARKS
MOBILE         PTSUNNY   77  48  35 VRB6      30.05F
6HR MIN TEMP:  51; 6HR MAX TEMP:  77;

BROOKLEY FIELD MOSUNNY   75  56  51 E7        30.05F
6HR MIN TEMP:  49; 6HR MAX TEMP:  76;

EVERGREEN      SUNNY     76  46  34 NW3       30.04F
6HR MIN TEMP:  44; 6HR MAX TEMP:  77;

$$

ALZ049-050-065>069-201900-
SOUTHEAST ALABAMA

CITY           SKY/WX    TMP DP  RH WIND       PRES   REMARKS
DOTHAN         MOSUNNY   74  56  53 VRB6      30.07F
6HR MIN TEMP:  48; 6HR MAX TEMP:  75;

OZARK          SUNNY     72  59  64 E3        30.08S
TROY           SUNNY     75  49  39 VRB5      30.05F
6HR MIN TEMP:  43; 6HR MAX TEMP:  76;

EUFAULA        PTSUNNY   74  57  55 VRB3      30.03F
6HR MIN TEMP:  47; 6HR MAX TEMP:  77;

$$



USA.gov is the U.S. government's official web portal to all federal, state and local government web resources and services.